Showing default

GONETS M 19, 46488

Orbit data source: Space-Track

GONETS M 19, 46488 is a payload satellite owned by Gonets (CIS) in LEO that was launched on Mon, 28 Sep 2020 UTC via a SOYUZ-2-1B launch vehicle from the Plesetsk Missile And Space Complex (PKMTR). Payloads include a variety of satellites, spacecraft, and rockets equipped with specific instruments for various scientific and technological missions. These include communications satellites like Starlink; space stations such as the ISS; scientific satellites like the Hubble; Earth observation satellites from companies like Planet Labs, Umbra, and HawkEye 360; GPS; miniature CubeSats for education and research; and military/defense satellites.

Loading next visibility...
GONETS M 19 details
Identifier
46488, 2020-068C
Orbit
LEO
Last TLE update7 hours ago
Origin
Flag of CISGonets (CIS)
ManufacturerResehetnev ISS
MissionOperational Commercial Communications
Bus & MotorSTRELA-3M, Unknown motor
Mass225 kg wet, 225 kg dry
Launch date (UTC)
2020-09-28 (4 years ago)
Launch vehicle
SOYUZ-2-1B
Launch site
Plesetsk Missile And Space Complex (PKMTR)
Object type
Payload
Rocket body
Debris
Shape & HBRCyl + 1 Ant, 7 m
Radar Cross Section1.798 m², Large (>1 m²)

Expand to show TLE details & history

TLE from 7 hours ago
0 GONETS M 19
1 46488U 20068C   24361.26299205  .00000029  00000-0  13848-3 0  9995
2 46488  82.4965 321.7865 0014388 135.8944 224.3286 12.42898868192427
Epoch: 2024-12-26T06:18Z
Definitive object data (Epoch: 2024-12-26T06:18:42.513Z)
Latitude0.00002°
Longitude131.86446°
Altitude1,505.15 km
Speed7.108 km/s
True Right ascension21h 27m 08s
True Declination0° 00' 00"
Sunlit
Object was in daylight at TLE epoch
Visualization TLE readout
Latitude44.37565°
Longitude-55.67264°
Altitude1,489.555 km
Speed7.128 km/s
Apparent Right ascension05h 09m 15s
Apparent Declination17° 48' 26"
Sunlit
Object is in full shadow
Visualization observer readout
Local Sidereal Time12:11:29
Azimuth293.481° NW
Elevation0.019°
Doppler factor1
Orbital elements
Apogee altitude1,503.013 km
Perigee altitude1,480.367 km
Semi-major axis7,869.827 km
Eccentricity0.0014388
Inclination82.4965°
RAAN321.7865°
Arg. of periapsis135.8944°
True anomaly224.21354°
Mean anomaly224.3286°
Eccentric anomaly224.27105°
Mean motion3.10882 °/min
BSTAR0.00013848
Orbital period115.8 mins
Loading maneuver chart data...
Loading historical data...
Loading historical data...
Loading historical data...
Loading historical data...
Loading historical data...
Loading historical data...
Loading historical data...

GONETS M 19 Visibility forecast

Observer location: undefined°, undefined

Span
Click to sort rows by Start time (UTC) header in descending order
Start Az.
Max El. time (UTC)
Max El. Az.
Max El.
End time (UTC)
End Az.
16 mins2024-12-26 21:50:55.267Z168.766° S2024-12-26 21:58:55.267Z90.012° ESE41.624°2024-12-26 22:06:55.267Z14.785° NNE
12 mins2024-12-26 23:50:55.267Z244.716° WSW2024-12-26 23:55:55.267Z287.935° WNW25.155°2024-12-27 00:02:55.267Z345.468° N
12 mins2024-12-27 08:03:55.267Z21.068° NNE2024-12-27 08:08:55.267Z65.454° ENE26.094°2024-12-27 08:15:55.267Z124.256° SE
15 mins2024-12-27 09:59:55.267Z341.643° N2024-12-27 10:06:55.267Z258.086° W40.571°2024-12-27 10:14:55.267Z192.549° SSW
|